Weather History for Curtin, WE

Change the Weather History Date:

Monday, June 24, 2013

  Actual Average Record
Temperature  
Mean Temperature 74 °F -  
Max Temperature 91 °F - - ()
Min Temperature 58 °F - - ()
Cooling Degree Days 10    
Growing Degree Days 24 (Base 50)    
Moisture  
Dew Point 50 °F    
Average Humidity 41    
Maximum Humidity 68    
Minimum Humidity 16    
Precipitation  
Precipitation 0.00 in - - ()
Sea Level Pressure  
Sea Level Pressure 29.94 in    
Wind  
Wind Speed 5 mph ()    
Max Wind Speed 12 mph    
Max Gust Speed -    
T = Trace of Precipitation, MM = Missing Value Source: Averaged Metar Reports

Daily Weather History Graph

Daily Weather History Graph

Search for Another Location

Airport:

Trip Planner

Search our weather history database for the weather conditions in past years. The results will help you decide how hot, cold, wet, or windy it might be!

Date:

Astronomy

Jun. 24, 2013 Rise Set
Actual Time 6:14 AM AWST 5:19 PM AWST
Civil Twilight 5:51 AM AWST 5:43 PM AWST
Nautical Twilight 5:23 AM AWST 6:10 PM AWST
Astronomical Twilight 4:57 AM AWST 6:37 PM AWST
Moon 6:21 PM AWST (6/24) 6:39 AM AWST (6/24)
Length of Visible Light 11h 51m
Length of Day
11h 04m
Full, 99% of the Moon is Illuminated
Jun 24
Full
Jun 30
Last Quarter
Jul 8
New
Jul 16
First Quarter
Jul 23
Full

Hourly Weather History & Observations

Time (AWST) Temp. Heat Index Dew Point Humidity Pressure Visibility Wind Dir Wind Speed Gust Speed Precip Events Conditions
12:00 AM 62 °F - 48 °F 51% 29.96 in - ESE 4.6 mph - -  
12:00 AM 62.6 °F - 48.2 °F 59% 29.95 in - ESE 4.6 mph - N/A   Unknown
1:00 AM 68.0 °F - 44.6 °F 43% 29.95 in - ESE 8.1 mph - N/A   Unknown
2:00 AM 68.0 °F - 42.8 °F 40% 29.92 in - East 6.9 mph - N/A   Unknown
3:00 AM 67 °F - 42 °F 29% 29.92 in - East 6.9 mph - -  
3:00 AM 66.2 °F - 42.8 °F 43% 29.92 in - East 6.9 mph - N/A   Unknown
4:00 AM 66.2 °F - 42.8 °F 43% 29.92 in - East 8.1 mph - N/A   Unknown
5:00 AM 64.4 °F - 42.8 °F 45% 29.92 in - East 6.9 mph - N/A   Unknown
6:00 AM 62 °F - 43 °F 38% 29.94 in - East 6.9 mph - -  
6:00 AM 62.6 °F - 42.8 °F 48% 29.95 in - East 6.9 mph - N/A   Unknown
7:00 AM 64.4 °F - 46.4 °F 52% 29.95 in - East 6.9 mph - N/A   Unknown
8:00 AM 73.4 °F - 48.2 °F 41% 29.98 in - ENE 8.1 mph - N/A   Unknown
9:00 AM 81 °F - 48 °F 22% 29.99 in - NE 10.4 mph - -  
9:00 AM 80.6 °F - 48.2 °F 32% 29.98 in - NE 10.4 mph - N/A   Unknown
10:00 AM 86.0 °F - 50.0 °F 29% 29.98 in - NE 10.4 mph - N/A   Unknown
11:00 AM 87.8 °F - 48.2 °F 25% 29.95 in - North 6.9 mph - N/A   Unknown
12:00 PM 91 °F - 51 °F 16% 29.94 in - NE 5.8 mph - -  
12:00 PM 91.4 °F - 50.0 °F 24% 29.92 in - NE 5.8 mph - N/A   Unknown
1:00 PM 91.4 °F - 50.0 °F 24% 29.89 in - North 11.5 mph - N/A   Unknown
2:00 PM 91.4 °F - 51.8 °F 26% 29.89 in - North 6.9 mph - N/A   Unknown
3:00 PM 89 °F - 51 °F 18% 29.89 in - NNW 6.9 mph - -  
3:00 PM 89.6 °F - 51.8 °F 27% 29.89 in - NNW 6.9 mph - N/A   Unknown
4:00 PM 89.6 °F - 51.8 °F 27% 29.89 in - North 5.8 mph - N/A   Unknown
5:00 PM 82.4 °F 81.4 °F 53.6 °F 37% 29.89 in - North 3.5 mph - N/A   Unknown
6:00 PM 73 °F - 53 °F 40% 29.92 in - Calm Calm - -  
6:00 PM 73.4 °F - 53.6 °F 50% 29.92 in - Calm Calm - N/A   Unknown
7:00 PM 69.8 °F - 55.4 °F 60% 29.95 in - Calm Calm - N/A   Unknown
8:00 PM 68.0 °F - 55.4 °F 64% 29.95 in - Calm Calm - N/A   Unknown
9:00 PM 71 °F - 59 °F 57% 29.97 in - Calm Calm - -  
9:00 PM 71.6 °F - 59.0 °F 64% 29.98 in - Calm Calm - N/A   Unknown
10:00 PM 68.0 °F - 55.4 °F 64% 29.95 in - Calm Calm - N/A   Unknown
11:00 PM 66.2 °F - 55.4 °F 68% 29.95 in - Calm Calm - N/A   Unknown